Location: Persiceto
(44.6333°N, 11.1833°E)
Time: 01:05:52
(UTC+00:00)

Daily predictions for brighter satellites

Satellite Brightness Start Highest point End
(mag) Time Altitude Azimuth Time Altitude Azimuth Time Altitude Azimuth
CENTAUR R/B 4.3 02:28:54 25° E 02:28:54 25° E 02:32:39 10° NE
Cosmos 2344 3.9 02:53:31 59° ENE 02:53:31 59° ENE 02:59:51 10° NE
USA 238 DEB 4.1 03:12:40 52° SE 03:12:55 52° ESE 03:19:27 10° NE
USA 238 4.2 03:12:43 51° SE 03:13:02 51° ESE 03:19:33 10° NE
BREEZE-M DEB (TANK) 4.2 03:15:56 41° E 03:15:56 41° E 03:22:22 10° ESE
Cosmos 2034 Rocket 4.3 03:24:10 59° SE 03:24:10 59° SE 03:29:23 10° SSE
USA 215 3.8 03:18:53 10° E 03:25:02 47° NNE 03:25:43 45° N
Cosmos 2369 Rocket 3.7 03:32:21 10° SSE 03:37:17 33° ESE 03:42:14 10° NE
NOSS 3-3 (A) 4.5 03:44:28 57° NW 03:46:24 88° SW 03:54:58 10° SE
NOSS 3-3 (C) 4.5 03:44:32 57° NW 03:46:30 89° SW 03:55:03 10° SE
COSMO-SKYMED 1 4.2 03:43:06 10° SE 03:46:59 32° ENE 03:48:36 24° NNE
Cosmos 1867 3.7 03:50:14 67° SSE 03:50:14 67° SSE 03:54:55 10° SSE
MOS 1-B Rocket 4.3 03:43:48 10° SSE 03:50:05 63° ENE 03:54:14 19° N
Tsikada Rocket 4.0 03:45:40 10° S 03:51:50 79° E 03:58:08 10° N
Cosmos 2208 Rocket 4.0 03:52:17 83° E 03:52:17 83° E 03:57:37 10° SSE
H-2A R/B 4.3 03:50:23 10° NNE 03:53:49 34° E 03:57:15 10° SSE
Gblst 52 Del rocket 4.3 03:54:35 72° NNW 03:54:42 72° NNW 04:01:22 10° ENE
Cosmos 1943 Rocket 2.1 04:06:38 67° NW 04:06:38 67° NW 04:12:08 10° NNE
CZ-2C R/B 3.1 04:02:39 10° SSE 04:08:03 60° ENE 04:13:22 10° N
SL-19 R/B 4.2 04:04:41 10° SSE 04:10:18 89° ENE 04:13:20 29° NNW
Cosmos 1241 Rocket 4.3 04:10:32 54° NW 04:11:55 74° WSW 04:18:05 10° SSE
SL-8 R/B 3.8 04:16:23 57° NNW 04:16:45 59° N 04:21:29 10° E
CENTAUR R/B 2.5 04:16:08 51° W 04:17:10 57° NW 04:24:12 10° NNE
Cosmos 2297 3.8 04:21:06 52° WNW 04:21:26 52° WNW 04:27:03 10° NNE
Iridium 2 3.8 04:22:27 10° S 04:26:13 71° E 04:30:00 10° N
NOSS 3-2 (A) 3.8 04:27:49 39° NW 04:28:21 40° NW 04:34:32 10° NNE
Cosmos 2278 Rocket 4.3 04:33:50 12° NNW 04:33:50 12° NNW 04:34:32 10° N
SKYMED 2 3.4 04:30:34 10° S 04:34:53 80° WSW 04:37:12 28° NNW
NOSS 3-2 (C) 3.4 04:33:35 37° WSW 04:35:41 56° NW 04:42:05 10° NNE
Envisat 2.8 04:30:59 10° N 04:36:05 80° WNW 04:41:10 10° SSW
Meteor 2-6 Rocket 4.3 04:31:34 10° N 04:37:00 72° ENE 04:42:21 10° SSE
Cosmos 2098 Rocket 2.8 04:37:25 10° S 04:41:11 82° W 04:46:00 10° N
Meteor 2-3 Rocket 4.0 04:36:36 10° SW 04:41:57 43° WNW 04:47:24 10° N
Landsat 5 3.5 04:40:01 10° SSE 04:44:31 83° WSW 04:48:26 14° NNW
Cosmos 968 Rocket 3.6 04:42:38 24° SW 04:45:28 47° WNW 04:50:26 10° N
Meteor 2-13 Rocket 4.4 04:40:16 10° SSW 04:46:18 61° WNW 04:52:20 10° N
CZ-4B R/B 4.0 04:44:09 10° N 04:48:35 71° WNW 04:53:02 10° SSW
Genesis I 3.8 04:49:24 38° WSW 04:49:45 39° WSW 04:53:31 10° S
Cosmos 921 Rocket 3.3 04:50:35 35° WNW 04:51:55 47° WSW 04:56:11 10° S
Okean 3 Rocket 3.5 04:48:17 10° S 04:52:49 86° W 04:57:24 10° N
Meteor 1-10 Rocket 4.4 04:47:25 10° N 04:52:59 72° ENE 04:58:31 10° SSE
ATLAS 5 CENTAUR R/B 4.1 04:52:01 10° SSE 04:54:51 20° ESE 04:57:52 10° ENE
H-2A R/B 3.4 04:51:16 10° SE 04:55:13 39° ENE 04:59:17 10° N
DNEPR-1 R/B 3.9 04:53:14 23° NW 04:56:23 88° NE 05:02:08 10° SE
Cosmos 1833 4.3 04:51:16 12° NNW 04:56:31 80° ENE 05:02:15 10° SSE
Cosmos 1812 3.0 04:56:58 32° NW 04:58:11 44° W 05:01:50 10° SSW
CBERS 1 LM4 rocket 4.4 04:54:29 10° N 04:59:16 59° WNW 05:04:11 10° SSW
ADEOS 3.6 04:54:22 10° NNE 04:59:38 86° ESE 05:04:51 10° SSW
Cosmos 1354 Rocket 4.2 04:57:47 10° SSW 05:03:02 75° ESE 05:08:21 10° NNE
USA 238 DEB 4.1 05:00:11 21° W 05:04:03 40° NW 05:10:31 10° NNE
USA 238 4.1 05:00:14 21° W 05:04:09 40° NW 05:10:37 10° NNE
Cosmos 1151 Rocket 3.3 05:01:35 15° NNW 05:05:04 47° W 05:09:15 10° SSW
Cosmos 1766 Rocket 3.6 05:01:49 10° SSW 05:06:04 54° WNW 05:10:19 10° N
Cosmos 2263 4.1 05:01:34 10° SW 05:07:13 68° WNW 05:12:59 10° NNE
Cosmos 2344 4.3 05:03:34 21° WNW 05:07:24 33° NNW 05:14:40 10° NNE
CZ-2C R/B 3.3 05:02:46 10° NNE 05:07:38 69° ESE 05:12:40 10° S
USA 215 3.3 05:01:22 10° SE 05:07:52 71° SW 05:13:03 17° NW
Meteor PRIRODA 3.6 05:09:18 10° NNE 05:12:55 81° E 05:16:33 10° S
Meteor 1-31 Rocket 3.3 05:10:52 10° N 05:14:25 35° WNW 05:17:58 10° SW
Cosmos 2279 Rocket 4.1 05:09:40 10° NNW 05:15:41 54° W 05:21:41 10° SSW
IRAS Rocket 4.2 05:11:05 10° SSE 05:16:36 79° WSW 05:22:08 10° NNW
Cosmos 2297 Rocket 4.4 05:12:42 10° N 05:16:37 19° NE 05:20:31 10° E
Cosmos 1328 Rocket 3.7 05:13:30 10° NNW 05:17:45 49° W 05:21:56 10° SSW
BREEZE-M DEB (TANK) 3.7 05:05:10 10° SW 05:18:12 70° SSE 05:21:46 10° ENE
Cosmos 2369 Rocket 2.6 05:15:59 10° SW 05:21:12 39° NW 05:26:28 10° NNE
FALCON 9 DEB 4.3 05:21:07 21° NW 05:22:21 26° NNW 05:25:16 10° NE
Cosmos 1862 3.9 05:18:49 10° SW 05:22:25 34° WNW 05:26:03 10° N
COSMO-SKYMED 1 3.6 05:19:34 10° SSW 05:23:09 25° W 05:25:48 15° NW
SMAP 3.9 05:18:48 10° NNE 05:23:22 54° E 05:27:55 10° S
Nadezhda 4 Rocket 4.0 05:19:13 10° S 05:25:22 89° ESE 05:31:38 10° N
H-2A R/B 4.1 05:25:08 10° NNW 05:27:41 18° WNW 05:30:15 10° WSW
H-2A R/B 3.8 05:30:07 10° NNE 05:34:37 35° E 05:39:06 10° SSE
Meteor 2-15 Rocket 4.4 05:29:24 10° NNW 05:35:29 74° W 05:41:31 10° S
Cosmos 2228 Rocket 4.1 05:31:33 10° N 05:35:55 51° ENE 05:40:20 10° SSE
CZ-4B R/B 2.6 05:33:45 10° N 05:37:16 56° WNW 05:40:46 10° SSW
CZ-4B R/B 2.1 05:35:44 10° SSE 05:39:00 55° ENE 05:42:15 10° N
Cosmos 1092 Rocket 4.4 05:33:28 10° S 05:39:38 69° E 05:45:55 10° NNE
Cosmos 1408 Rocket 3.7 05:37:18 10° SSW 05:41:27 48° WNW 05:45:38 10° N
CZ-4C R/B 4.4 05:42:01 10° SW 05:44:10 17° W 05:46:01 11° NW
DMSP B5D2-2 4.3 05:39:23 10° S 05:44:24 48° W 05:49:27 10° NNW
Cosmos 1656 Rocket 4.2 05:40:00 10° WSW 05:44:55 35° NW 05:49:53 10° N
Cosmos 1503 Rocket 4.4 05:40:10 10° SW 05:45:08 42° WNW 05:50:12 10° N
USA 32 4.1 05:42:15 10° N 05:47:31 87° E 05:52:46 10° S
CZ-2C R/B 4.0 05:44:47 10° SW 05:48:42 20° W 05:52:37 10° NW
Cosmos 1743 Rocket 3.5 05:44:21 10° SSW 05:48:44 77° W 05:53:08 10° N
FAST Rocket 3.9 05:48:28 10° SSW 05:51:02 57° W 05:53:56 10° N
Cosmos 1943 Rocket 3.8 05:48:25 10° WNW 05:51:21 14° NW 05:54:16 10° N
AQUARIUS 4.2 05:46:54 10° NNE 05:51:25 89° ESE 05:55:54 10° SSW
Cosmos 2227 Rocket 4.1 05:47:38 10° N 05:52:07 23° NE 05:56:36 10° ESE
PSLV R/B 4.1 05:52:20 10° SSE 05:56:23 78° ENE 06:00:29 10° N
PSLV R/B 4.1 05:52:39 10° NNE 05:56:35 77° ESE 06:00:34 10° S
Cosmos 1777 Rocket 4.0 05:51:33 10° SSW 05:56:44 69° WNW 06:01:59 10° NNE
Cosmos 1515 Rocket 4.2 05:54:03 10° NNW 05:58:00 33° W 06:01:52 10° SSW
SL-8 R/B 4.0 05:54:38 10° WNW 05:59:22 62° SSW 06:04:05 10° SE
CORIOLIS 4.2 05:55:16 10° NNE 06:00:45 86° WNW 06:06:12 10° SSW
Meteor 1-27 Rocket 4.0 05:55:43 10° NNW 06:01:08 51° W 06:06:39 10° SSW
Cosmos 1602 3.7 05:57:23 10° S 06:01:11 87° W 06:05:00 10° N
NOAA 6 4.0 05:57:44 10° N 06:02:50 73° WNW 06:07:55 10° SSW
COSMOS 2487 2.5 06:02:03 10° NNW 06:05:25 78° ENE 06:08:45 10° SSE
Cosmos 773 Rocket 4.5 06:00:52 10° NW 06:05:47 42° WSW 06:10:37 10° S
SJ 16-02 1.4 06:02:00 10° SW 06:06:18 55° WNW 06:10:38 10° N
